NORTHEAST SUFFOLK  -  Winter Weather Advisory Winter Weather Advisory        NORTHERN NASSAU  -  Winter Weather Advisory Winter Weather Advisory        NORTHWEST SUFFOLK  -  Winter Weather Advisory Winter Weather Advisory        SOUTHEAST SUFFOLK  -  Winter Weather Advisory Winter Weather Advisory        SOUTHERN NASSAU  -  Winter Weather Advisory Winter Weather Advisory        SOUTHWEST SUFFOLK  -  Winter Weather Advisory Winter Weather Advisory      

Active alerts

Northern Nassau
  Details for Northern Nassau Winter Weather Advisory
Southern Nassau
  Details for Southern Nassau Winter Weather Advisory
Northwest Suffolk
  Details for Northwest Suffolk Winter Weather Advisory
Southwest Suffolk
  Details for Southwest Suffolk Winter Weather Advisory
Northeast Suffolk
  Details for Northeast Suffolk Winter Weather Advisory
Southeast Suffolk
  Details for Southeast Suffolk Winter Weather Advisory


WXM80 ListenWXM80 Stop

You find our weather info also at:

UK Metoffice

WeatherCloud

Weather Underground

Northeastern Weather Network

AWEKAS

Citizen Weather Observer Program (CWOP)

HAMweather, WeatherForYou, PWS Weather


Weather Underground History page Text

Daily Summary for February 19, 2016 Units:  English    Metric   Both
« Previous Day
Next Day »
Daily Weekly Monthly Yearly Custom
  High: Low: Average:
Temperature: 40.0 °F 23.9 °F 31.4 °F
Dew Point: 35.9 °F 10.8 °F 20.2 °F
Humidity: 85 % 48 % 63 %
Wind Speed: 8.8 mph 0.0 mph 2.8 mph
Wind Gust: 17.3 mph - -
Wind:- - ESE
Pressure: 30.59 in 30.18 in -
Precipitation: 0.00 in    
Historical Graphs
 
 
Tabular Data for February 19, 2016
Time Temperature Dew Point Pressure Wind Wind Speed Wind Gust Humidity Rainfall Rate (Hourly)
00:04 27.1 °F 13.9 °F 30.50 in North 8.7 mph 17.3 mph 57 % 0.00 in
00:09 27.0 °F 13.4 °F 30.50 in North 6.7 mph 13.0 mph 56 % 0.00 in
00:14 27.0 °F 13.8 °F 30.50 in NNE 6.8 mph 10.4 mph 57 % 0.00 in
00:19 27.0 °F 13.8 °F 30.50 in NE 7.6 mph 9.2 mph 57 % 0.00 in
00:24 27.0 °F 13.8 °F 30.51 in NE 6.5 mph 11.5 mph 57 % 0.00 in
00:29 26.9 °F 13.3 °F 30.51 in NNE 4.1 mph 8.1 mph 56 % 0.00 in
00:34 26.9 °F 13.3 °F 30.51 in North 8.8 mph 11.5 mph 56 % 0.00 in
00:40 26.9 °F 13.7 °F 30.51 in NNE 4.9 mph 10.0 mph 57 % 0.00 in
00:45 26.9 °F 13.3 °F 30.51 in North 6.6 mph 10.4 mph 56 % 0.00 in
00:50 26.9 °F 13.3 °F 30.51 in NNE 6.2 mph 10.0 mph 56 % 0.00 in
00:55 26.8 °F 12.4 °F 30.51 in NNE 6.2 mph 12.7 mph 54 % 0.00 in
01:00 26.8 °F 12.8 °F 30.51 in NNE 7.7 mph 10.4 mph 55 % 0.00 in
01:10 26.6 °F 12.6 °F 30.51 in North 5.7 mph 9.2 mph 55 % 0.00 in
01:15 26.5 °F 12.5 °F 30.51 in North 5.6 mph 11.0 mph 55 % 0.00 in
01:20 26.5 °F 12.5 °F 30.51 in North 6.5 mph 11.5 mph 55 % 0.00 in
01:25 26.4 °F 12.8 °F 30.51 in NE 3.4 mph 8.1 mph 56 % 0.00 in
01:31 26.3 °F 12.3 °F 30.51 in North 4.0 mph 9.2 mph 55 % 0.00 in
01:36 26.2 °F 12.6 °F 30.52 in North 3.4 mph 11.5 mph 56 % 0.00 in
01:46 26.0 °F 12.4 °F 30.52 in NNE 6.8 mph 11.5 mph 56 % 0.00 in
01:51 26.0 °F 12.4 °F 30.52 in North 5.3 mph 10.4 mph 56 % 0.00 in
02:06 25.9 °F 11.9 °F 30.52 in NNE 4.2 mph 6.0 mph 55 % 0.00 in
02:11 25.8 °F 12.6 °F 30.52 in North 5.4 mph 8.1 mph 57 % 0.00 in
02:16 25.8 °F 12.2 °F 30.52 in North 5.7 mph 11.5 mph 56 % 0.00 in
02:22 25.8 °F 12.6 °F 30.51 in North 6.4 mph 11.5 mph 57 % 0.00 in
02:27 25.7 °F 12.6 °F 30.52 in NNE 4.6 mph 9.2 mph 57 % 0.00 in
02:32 25.7 °F 12.6 °F 30.51 in NNE 5.7 mph 8.1 mph 57 % 0.00 in
02:37 25.6 °F 12.5 °F 30.51 in NNE 4.8 mph 8.1 mph 57 % 0.00 in
02:42 25.6 °F 12.1 °F 30.51 in NNE 3.6 mph 8.1 mph 56 % 0.00 in
02:47 25.5 °F 12.0 °F 30.51 in NE 2.8 mph 5.8 mph 56 % 0.00 in
02:52 25.4 °F 12.3 °F 30.51 in North 5.8 mph 10.4 mph 57 % 0.00 in
02:57 25.4 °F 12.3 °F 30.51 in NE 4.8 mph 9.0 mph 57 % 0.00 in
03:02 25.3 °F 12.6 °F 30.51 in NE 4.5 mph 5.8 mph 58 % 0.00 in
03:07 25.2 °F 12.5 °F 30.51 in North 2.9 mph 5.8 mph 58 % 0.00 in
03:13 25.2 °F 12.1 °F 30.51 in NNE 2.7 mph 6.9 mph 57 % 0.00 in
03:18 25.1 °F 12.0 °F 30.51 in NE 2.7 mph 5.8 mph 57 % 0.00 in
03:23 25.1 °F 12.0 °F 30.51 in NNE 3.1 mph 6.0 mph 57 % 0.00 in
03:28 25.1 °F 12.0 °F 30.52 in NE 4.5 mph 6.0 mph 57 % 0.00 in
03:33 24.9 °F 11.8 °F 30.52 in NNE 4.3 mph 8.0 mph 57 % 0.00 in
03:38 24.9 °F 12.2 °F 30.52 in NNE 2.9 mph 3.5 mph 58 % 0.00 in
03:43 24.9 °F 12.2 °F 30.52 in NNE 4.8 mph 7.0 mph 58 % 0.00 in
03:48 24.8 °F 11.7 °F 30.52 in NNE 5.2 mph 6.9 mph 57 % 0.00 in
03:53 24.8 °F 11.7 °F 30.53 in NE 2.7 mph 8.1 mph 57 % 0.00 in
03:58 24.8 °F 11.7 °F 30.53 in ENE 2.9 mph 8.0 mph 57 % 0.00 in
04:04 24.8 °F 11.7 °F 30.53 in NNE 0.9 mph 4.6 mph 57 % 0.00 in
04:09 24.8 °F 12.1 °F 30.53 in NNE 1.6 mph 3.5 mph 58 % 0.00 in
04:14 24.7 °F 11.6 °F 30.53 in NNE 3.0 mph 5.8 mph 57 % 0.00 in
04:19 24.6 °F 11.5 °F 30.53 in NE 3.2 mph 4.6 mph 57 % 0.00 in
04:24 24.6 °F 11.9 °F 30.53 in NNE 1.9 mph 3.5 mph 58 % 0.00 in
04:29 24.6 °F 11.9 °F 30.53 in ENE 2.6 mph 4.6 mph 58 % 0.00 in
04:39 24.7 °F 12.4 °F 30.53 in NE 1.5 mph 3.5 mph 59 % 0.00 in
04:44 24.7 °F 12.4 °F 30.53 in NE 3.4 mph 4.0 mph 59 % 0.00 in
04:49 24.7 °F 12.0 °F 30.54 in East 3.3 mph 4.0 mph 58 % 0.00 in
04:55 24.7 °F 12.0 °F 30.54 in NNE 1.8 mph 4.0 mph 58 % 0.00 in
05:00 24.7 °F 11.2 °F 30.54 in NE 3.5 mph 6.9 mph 56 % 0.00 in
05:05 24.7 °F 11.6 °F 30.54 in NE 2.6 mph 4.6 mph 57 % 0.00 in
05:10 24.7 °F 11.6 °F 30.54 in NNE 1.3 mph 4.6 mph 57 % 0.00 in
05:15 24.6 °F 11.1 °F 30.55 in NNE 2.2 mph 3.5 mph 56 % 0.00 in
05:20 24.5 °F 11.0 °F 30.55 in ENE 1.2 mph 3.5 mph 56 % 0.00 in
05:25 24.4 °F 10.9 °F 30.55 in NNE 3.9 mph 5.8 mph 56 % 0.00 in
05:30 24.3 °F 10.8 °F 30.55 in North 1.7 mph 3.0 mph 56 % 0.00 in
05:35 24.3 °F 10.8 °F 30.55 in NNE 4.3 mph 6.9 mph 56 % 0.00 in
05:40 24.3 °F 10.8 °F 30.55 in ENE 2.1 mph 5.8 mph 56 % 0.00 in
05:46 24.3 °F 10.8 °F 30.55 in NE 1.7 mph 3.5 mph 56 % 0.00 in
05:51 24.2 °F 11.1 °F 30.55 in NNE 2.3 mph 5.8 mph 57 % 0.00 in
05:56 24.2 °F 11.5 °F 30.55 in North 3.1 mph 4.6 mph 58 % 0.00 in
06:01 24.1 °F 11.0 °F 30.56 in NNE 4.5 mph 6.9 mph 57 % 0.00 in
06:06 24.1 °F 11.0 °F 30.56 in NNE 2.9 mph 3.5 mph 57 % 0.00 in
06:11 24.1 °F 11.0 °F 30.56 in NNE 1.6 mph 3.5 mph 57 % 0.00 in
06:16 24.0 °F 11.3 °F 30.56 in NNE 2.4 mph 4.6 mph 58 % 0.00 in
06:21 24.0 °F 11.3 °F 30.56 in North 2.6 mph 3.5 mph 58 % 0.00 in
06:26 24.0 °F 11.3 °F 30.57 in NNE 3.7 mph 4.6 mph 58 % 0.00 in
06:31 24.0 °F 11.0 °F 30.57 in NNE 1.6 mph 3.5 mph 57 % 0.00 in
06:37 23.9 °F 11.3 °F 30.57 in NE 1.7 mph 3.5 mph 58 % 0.00 in
06:42 23.9 °F 11.6 °F 30.57 in NNE 2.4 mph 4.6 mph 59 % 0.00 in
06:47 23.9 °F 11.6 °F 30.57 in NNE 3.2 mph 4.6 mph 59 % 0.00 in
06:52 23.9 °F 11.6 °F 30.57 in NNE 3.5 mph 5.8 mph 59 % 0.00 in
06:57 24.0 °F 12.1 °F 30.57 in NNE 0.8 mph 2.3 mph 60 % 0.00 in
07:02 24.0 °F 12.1 °F 30.57 in NNE 0.5 mph 2.3 mph 60 % 0.00 in
07:07 24.2 °F 12.7 °F 30.57 in NNE 1.6 mph 3.0 mph 61 % 0.00 in
07:12 24.5 °F 13.0 °F 30.57 in NNE 1.2 mph 3.5 mph 61 % 0.00 in
07:17 24.8 °F 12.9 °F 30.57 in NNE 1.9 mph 3.0 mph 60 % 0.00 in
07:22 25.1 °F 13.5 °F 30.57 in ENE 2.1 mph 3.5 mph 61 % 0.00 in
07:28 25.4 °F 13.8 °F 30.57 in ENE 1.0 mph 3.0 mph 61 % 0.00 in
07:33 25.7 °F 13.7 °F 30.57 in ENE 1.1 mph 3.5 mph 60 % 0.00 in
07:38 25.9 °F 13.5 °F 30.57 in NNE 1.4 mph 3.5 mph 59 % 0.00 in
07:43 26.0 °F 14.0 °F 30.57 in NNE 0.9 mph 4.0 mph 60 % 0.00 in
07:48 26.2 °F 13.4 °F 30.58 in NNE 3.1 mph 4.6 mph 58 % 0.00 in
07:58 26.4 °F 13.2 °F 30.58 in NNE 3.0 mph 4.0 mph 57 % 0.00 in
08:03 26.5 °F 13.7 °F 30.58 in NNE 1.7 mph 5.0 mph 58 % 0.00 in
08:08 26.7 °F 13.9 °F 30.59 in NNE 0.9 mph 2.3 mph 58 % 0.00 in
08:13 27.0 °F 14.2 °F 30.58 in NE 2.7 mph 4.6 mph 58 % 0.00 in
08:19 27.4 °F 14.5 °F 30.58 in North 2.8 mph 5.0 mph 58 % 0.00 in
08:29 28.0 °F 14.3 °F 30.57 in NE 2.0 mph 3.5 mph 56 % 0.00 in
08:44 28.2 °F 14.1 °F 30.57 in ENE 4.3 mph 6.0 mph 55 % 0.00 in
08:49 28.1 °F 14.4 °F 30.58 in NE 1.8 mph 4.6 mph 56 % 0.00 in
08:54 28.3 °F 14.6 °F 30.58 in ENE 3.3 mph 7.0 mph 56 % 0.00 in
08:59 28.3 °F 14.6 °F 30.58 in NE 3.1 mph 6.9 mph 56 % 0.00 in
09:04 28.4 °F 15.5 °F 30.58 in ENE 1.2 mph 3.5 mph 58 % 0.00 in
09:10 28.8 °F 15.9 °F 30.58 in ENE 2.7 mph 3.5 mph 58 % 0.00 in
09:15 28.9 °F 15.6 °F 30.58 in NE 1.8 mph 3.5 mph 57 % 0.00 in
09:20 29.1 °F 15.7 °F 30.59 in ENE 0.9 mph 3.5 mph 57 % 0.00 in
09:25 29.5 °F 16.1 °F 30.59 in NNE 2.0 mph 3.5 mph 57 % 0.00 in
09:30 29.7 °F 16.3 °F 30.59 in Calm   1.2 mph 57 % 0.00 in
09:40 30.1 °F 15.9 °F 30.59 in NNE 1.8 mph 3.5 mph 55 % 0.00 in
09:45 30.5 °F 17.1 °F 30.58 in NNE 2.2 mph 3.5 mph 57 % 0.00 in
09:50 30.8 °F 16.9 °F 30.58 in ENE 1.4 mph 3.0 mph 56 % 0.00 in
09:56 31.1 °F 17.6 °F 30.58 in NE 1.6 mph 5.0 mph 57 % 0.00 in
10:01 31.4 °F 16.7 °F 30.58 in North 0.5 mph 3.5 mph 54 % 0.00 in
10:06 31.4 °F 16.2 °F 30.58 in ENE 3.2 mph 4.6 mph 53 % 0.00 in
10:11 31.4 °F 17.5 °F 30.57 in NE 2.3 mph 3.5 mph 56 % 0.00 in
10:16 31.3 °F 17.0 °F 30.57 in ENE 3.0 mph 4.6 mph 55 % 0.00 in
10:21 31.4 °F 17.5 °F 30.57 in ENE 2.4 mph 3.5 mph 56 % 0.00 in
10:26 31.5 °F 17.6 °F 30.56 in North 2.5 mph 3.5 mph 56 % 0.00 in
10:31 31.9 °F 18.0 °F 30.56 in NE 3.4 mph 4.6 mph 56 % 0.00 in
10:36 31.7 °F 17.4 °F 30.56 in ENE 2.6 mph 4.6 mph 55 % 0.00 in
10:41 31.8 °F 18.7 °F 30.56 in East 3.3 mph 5.0 mph 58 % 0.00 in
10:47 31.9 °F 18.4 °F 30.56 in North 1.6 mph 3.5 mph 57 % 0.00 in
10:52 32.6 °F 19.0 °F 30.56 in ENE 2.2 mph 3.5 mph 57 % 0.00 in
10:57 33.0 °F 19.8 °F 30.55 in NNE 3.9 mph 6.0 mph 58 % 0.00 in
11:02 33.2 °F 19.2 °F 30.55 in ENE 1.6 mph 3.5 mph 56 % 0.00 in
11:07 33.3 °F 19.3 °F 30.55 in ENE 3.1 mph 3.5 mph 56 % 0.00 in
11:12 33.4 °F 19.4 °F 30.55 in NNE 3.3 mph 7.0 mph 56 % 0.00 in
11:27 33.9 °F 19.8 °F 30.54 in ENE 3.1 mph 5.0 mph 56 % 0.00 in
11:32 33.5 °F 19.5 °F 30.53 in ENE 3.6 mph 4.6 mph 56 % 0.00 in
11:38 33.7 °F 20.9 °F 30.53 in NE 2.7 mph 3.5 mph 59 % 0.00 in
11:43 34.4 °F 20.3 °F 30.53 in NNE 3.4 mph 7.0 mph 56 % 0.00 in
11:48 34.3 °F 19.8 °F 30.53 in ENE 2.3 mph 3.5 mph 55 % 0.00 in
11:53 34.4 °F 20.3 °F 30.53 in NE 1.2 mph 3.5 mph 56 % 0.00 in
12:03 34.7 °F 20.6 °F 30.53 in NNE 3.4 mph 4.0 mph 56 % 0.00 in
12:08 34.8 °F 20.7 °F 30.52 in North 4.4 mph 5.8 mph 56 % 0.00 in
12:13 35.0 °F 20.9 °F 30.52 in North 1.9 mph 3.5 mph 56 % 0.00 in
12:18 35.2 °F 20.6 °F 30.52 in North 0.7 mph 4.0 mph 55 % 0.00 in
12:23 35.7 °F 21.5 °F 30.51 in North 3.1 mph 5.8 mph 56 % 0.00 in
12:29 36.0 °F 21.4 °F 30.50 in ENE 2.8 mph 5.0 mph 55 % 0.00 in
12:34 35.8 °F 20.8 °F 30.50 in ENE 2.6 mph 4.6 mph 54 % 0.00 in
12:39 35.8 °F 21.6 °F 30.50 in ENE 2.5 mph 4.6 mph 56 % 0.00 in
12:44 35.9 °F 21.7 °F 30.50 in ENE 4.3 mph 5.8 mph 56 % 0.00 in
12:54 36.0 °F 21.4 °F 30.49 in NNE 1.5 mph 5.0 mph 55 % 0.00 in
12:59 35.7 °F 21.5 °F 30.49 in NE 2.4 mph 3.5 mph 56 % 0.00 in
13:04 35.3 °F 21.6 °F 30.48 in NNE 3.0 mph 4.0 mph 57 % 0.00 in
13:09 35.0 °F 20.9 °F 30.48 in East 1.3 mph 3.5 mph 56 % 0.00 in
13:14 34.5 °F 21.2 °F 30.48 in NNE 3.4 mph 4.6 mph 58 % 0.00 in
13:20 34.4 °F 21.1 °F 30.47 in ENE 2.1 mph 3.5 mph 58 % 0.00 in
13:25 34.3 °F 21.8 °F 30.47 in NNE 0.7 mph 2.3 mph 60 % 0.00 in
13:30 34.1 °F 20.9 °F 30.47 in ENE 1.5 mph 3.5 mph 58 % 0.00 in
13:35 33.8 °F 20.6 °F 30.46 in NE 1.1 mph 3.5 mph 58 % 0.00 in
13:40 33.7 °F 20.9 °F 30.46 in NE 0.8 mph 3.5 mph 59 % 0.00 in
13:45 33.5 °F 20.7 °F 30.45 in ENE 0.9 mph 2.3 mph 59 % 0.00 in
13:55 33.4 °F 21.4 °F 30.45 in ENE 0.1 mph 1.2 mph 61 % 0.00 in
14:00 33.7 °F 22.4 °F 30.45 in North 0.3 mph 1.2 mph 63 % 0.00 in
14:05 34.1 °F 22.0 °F 30.45 in North 2.0 mph 3.5 mph 61 % 0.00 in
14:11 34.3 °F 22.2 °F 30.44 in ENE 1.8 mph 2.3 mph 61 % 0.00 in
14:16 34.6 °F 22.1 °F 30.43 in NNW 2.2 mph 3.5 mph 60 % 0.00 in
14:21 34.6 °F 21.7 °F 30.43 in NNE 1.2 mph 3.5 mph 59 % 0.00 in
14:26 34.6 °F 21.7 °F 30.43 in ENE 2.6 mph 3.5 mph 59 % 0.00 in
14:31 34.3 °F 21.4 °F 30.42 in ENE 1.7 mph 3.0 mph 59 % 0.00 in
14:36 34.2 °F 21.7 °F 30.42 in ENE 1.3 mph 3.0 mph 60 % 0.00 in
14:41 34.0 °F 21.6 °F 30.42 in NE 2.5 mph 3.5 mph 60 % 0.00 in
14:46 33.8 °F 21.4 °F 30.41 in ENE 2.1 mph 3.5 mph 60 % 0.00 in
14:51 33.7 °F 21.7 °F 30.41 in East 1.9 mph 3.5 mph 61 % 0.00 in
14:56 33.7 °F 22.1 °F 30.40 in ENE 2.6 mph 4.6 mph 62 % 0.00 in
15:02 33.7 °F 22.4 °F 30.40 in ENE 3.4 mph 4.0 mph 63 % 0.00 in
15:07 33.7 °F 22.4 °F 30.40 in NE 1.9 mph 3.5 mph 63 % 0.00 in
15:12 33.9 °F 23.0 °F 30.40 in NE 1.9 mph 3.5 mph 64 % 0.00 in
15:17 34.1 °F 22.0 °F 30.40 in South 1.1 mph 2.3 mph 61 % 0.00 in
15:22 34.8 °F 18.0 °F 30.39 in SSE 5.0 mph 8.0 mph 50 % 0.00 in
15:27 35.3 °F 17.5 °F 30.39 in SSE 4.9 mph 6.9 mph 48 % 0.00 in
15:32 35.6 °F 18.3 °F 30.39 in South 2.7 mph 4.6 mph 49 % 0.00 in
15:37 35.8 °F 18.0 °F 30.39 in SSW 2.4 mph 8.1 mph 48 % 0.00 in
15:42 35.9 °F 18.1 °F 30.39 in SSW 5.0 mph 6.9 mph 48 % 0.00 in
15:47 35.8 °F 18.5 °F 30.38 in South 3.3 mph 6.9 mph 49 % 0.00 in
15:53 35.8 °F 18.0 °F 30.38 in South 1.8 mph 4.6 mph 48 % 0.00 in
15:58 35.7 °F 17.9 °F 30.38 in South 2.5 mph 5.8 mph 48 % 0.00 in
16:03 35.7 °F 18.4 °F 30.37 in South 3.3 mph 5.0 mph 49 % 0.00 in
16:08 35.7 °F 18.4 °F 30.37 in SSW 3.9 mph 6.9 mph 49 % 0.00 in
16:13 35.6 °F 18.8 °F 30.36 in South 7.9 mph 11.5 mph 50 % 0.00 in
16:18 35.3 °F 19.0 °F 30.35 in SSE 1.3 mph 4.6 mph 51 % 0.00 in
16:23 35.1 °F 19.7 °F 30.36 in SSE 1.6 mph 6.9 mph 53 % 0.00 in
16:28 35.0 °F 20.4 °F 30.36 in South 3.0 mph 6.9 mph 55 % 0.00 in
16:33 34.9 °F 20.8 °F 30.35 in SSE 3.0 mph 4.0 mph 56 % 0.00 in
16:38 34.9 °F 21.6 °F 30.35 in South 4.5 mph 6.0 mph 58 % 0.00 in
16:44 34.7 °F 22.2 °F 30.35 in South 4.5 mph 9.2 mph 60 % 0.00 in
16:49 34.5 °F 22.4 °F 30.34 in SSE 4.0 mph 11.5 mph 61 % 0.00 in
16:54 34.4 °F 23.1 °F 30.34 in South 4.3 mph 6.9 mph 63 % 0.00 in
16:59 34.3 °F 23.4 °F 30.33 in SSE 1.7 mph 3.5 mph 64 % 0.00 in
17:04 34.3 °F 23.7 °F 30.33 in South 4.2 mph 8.1 mph 65 % 0.00 in
17:09 34.2 °F 24.4 °F 30.33 in South 4.8 mph 10.4 mph 67 % 0.00 in
17:14 34.1 °F 24.6 °F 30.33 in South 1.2 mph 5.8 mph 68 % 0.00 in
17:29 33.8 °F 25.0 °F 30.33 in SSW 0.6 mph 6.9 mph 70 % 0.00 in
17:35 33.7 °F 25.0 °F 30.33 in South 0.9 mph 2.3 mph 70 % 0.00 in
17:45 33.7 °F 25.3 °F 30.33 in South 1.7 mph 3.5 mph 71 % 0.00 in
17:50 33.7 °F 25.6 °F 30.32 in SSE 2.0 mph 3.5 mph 72 % 0.00 in
17:55 33.6 °F 25.5 °F 30.32 in South 2.3 mph 3.5 mph 72 % 0.00 in
18:00 33.6 °F 25.5 °F 30.32 in South 1.5 mph 3.5 mph 72 % 0.00 in
18:05 33.6 °F 25.5 °F 30.32 in South 0.5 mph 1.2 mph 72 % 0.00 in
18:10 33.6 °F 25.5 °F 30.33 in Calm     72 % 0.00 in
18:15 33.5 °F 25.8 °F 30.32 in South 1.5 mph 3.5 mph 73 % 0.00 in
18:20 33.5 °F 26.1 °F 30.32 in SSE 1.9 mph 3.5 mph 74 % 0.00 in
18:26 33.5 °F 26.4 °F 30.32 in South 2.1 mph 3.5 mph 75 % 0.00 in
18:31 33.6 °F 26.5 °F 30.32 in South 0.7 mph 4.6 mph 75 % 0.00 in
18:36 33.7 °F 26.6 °F 30.32 in SE 2.6 mph 4.6 mph 75 % 0.00 in
18:41 33.8 °F 27.0 °F 30.32 in SSW 2.4 mph 4.6 mph 76 % 0.00 in
18:46 33.8 °F 27.0 °F 30.31 in SSE 0.7 mph 2.3 mph 76 % 0.00 in
18:51 33.8 °F 27.4 °F 30.30 in SSE 0.8 mph 2.3 mph 77 % 0.00 in
18:56 33.9 °F 27.4 °F 30.30 in SSE 1.3 mph 3.5 mph 77 % 0.00 in
19:01 33.9 °F 27.8 °F 30.30 in SE 1.5 mph 5.8 mph 78 % 0.00 in
19:06 34.0 °F 27.9 °F 30.30 in SSE 0.1 mph 2.3 mph 78 % 0.00 in
19:11 34.1 °F 28.3 °F 30.29 in South 3.6 mph 4.0 mph 79 % 0.00 in
19:17 34.2 °F 28.4 °F 30.28 in SSE 1.2 mph 4.6 mph 79 % 0.00 in
19:27 34.5 °F 29.0 °F 30.29 in South 0.6 mph 2.3 mph 80 % 0.00 in
19:32 34.6 °F 29.1 °F 30.28 in South 1.3 mph 3.5 mph 80 % 0.00 in
19:37 34.8 °F 29.6 °F 30.28 in SSE 2.8 mph 4.6 mph 81 % 0.00 in
19:42 35.0 °F 29.5 °F 30.28 in South 0.6 mph 1.2 mph 80 % 0.00 in
19:47 35.1 °F 29.9 °F 30.28 in South 1.3 mph 3.0 mph 81 % 0.00 in
19:52 35.2 °F 30.0 °F 30.28 in SSE 2.6 mph 5.8 mph 81 % 0.00 in
19:57 35.4 °F 30.1 °F 30.28 in South 2.5 mph 3.5 mph 81 % 0.00 in
20:02 35.6 °F 30.3 °F 30.28 in SSW 0.5 mph 6.9 mph 81 % 0.00 in
20:08 35.8 °F 30.5 °F 30.28 in WSW 1.6 mph 3.0 mph 81 % 0.00 in
20:13 36.0 °F 30.7 °F 30.28 in South 2.1 mph 4.6 mph 81 % 0.00 in
20:18 36.2 °F 30.9 °F 30.28 in SSW 1.3 mph 3.5 mph 81 % 0.00 in
20:23 36.3 °F 31.0 °F 30.27 in South 3.2 mph 6.9 mph 81 % 0.00 in
20:28 36.5 °F 31.2 °F 30.28 in SSW 3.4 mph 6.9 mph 81 % 0.00 in
20:33 36.5 °F 31.2 °F 30.27 in SSW 2.9 mph 4.6 mph 81 % 0.00 in
20:38 36.6 °F 31.3 °F 30.28 in SSW 1.2 mph 2.3 mph 81 % 0.00 in
20:43 36.7 °F 31.4 °F 30.28 in SSW 2.5 mph 4.6 mph 81 % 0.00 in
20:48 36.8 °F 31.5 °F 30.27 in South 3.9 mph 3.9 mph 81 % 0.00 in
20:53 36.9 °F 31.6 °F 30.26 in South 3.3 mph 6.9 mph 81 % 0.00 in
21:04 37.2 °F 31.9 °F 30.26 in SSW 2.5 mph 6.9 mph 81 % 0.00 in
21:09 37.3 °F 32.0 °F 30.26 in SSE 3.1 mph 5.0 mph 81 % 0.00 in
21:14 37.4 °F 32.1 °F 30.26 in South 3.3 mph 6.9 mph 81 % 0.00 in
21:19 37.5 °F 32.2 °F 30.26 in SSW 3.9 mph 6.0 mph 81 % 0.00 in
21:24 37.6 °F 32.3 °F 30.26 in SSW 1.8 mph 4.0 mph 81 % 0.00 in
21:29 37.7 °F 32.7 °F 30.27 in South 2.5 mph 6.0 mph 82 % 0.00 in
21:34 37.9 °F 32.9 °F 30.27 in South 1.3 mph 4.0 mph 82 % 0.00 in
21:39 38.0 °F 33.0 °F 30.27 in SSW 2.2 mph 5.8 mph 82 % 0.00 in
21:44 38.1 °F 33.1 °F 30.26 in SW 1.1 mph 5.8 mph 82 % 0.00 in
21:50 38.2 °F 33.2 °F 30.25 in SSE 3.2 mph 4.6 mph 82 % 0.00 in
21:55 38.2 °F 33.2 °F 30.25 in SSW 4.6 mph 7.0 mph 82 % 0.00 in
22:00 38.3 °F 33.3 °F 30.25 in SSW 3.3 mph 5.8 mph 82 % 0.00 in
22:05 38.4 °F 33.7 °F 30.25 in SSW 4.1 mph 6.9 mph 83 % 0.00 in
22:10 38.5 °F 33.8 °F 30.25 in South 5.0 mph 8.1 mph 83 % 0.00 in
22:15 38.6 °F 33.9 °F 30.25 in SSE 2.6 mph 6.0 mph 83 % 0.00 in
22:20 38.7 °F 34.0 °F 30.25 in SSW 2.1 mph 3.5 mph 83 % 0.00 in
22:25 38.8 °F 34.1 °F 30.24 in South 4.7 mph 8.1 mph 83 % 0.00 in
22:30 38.8 °F 34.1 °F 30.24 in SSE 1.8 mph 6.9 mph 83 % 0.00 in
22:36 39.0 °F 34.3 °F 30.23 in South 2.1 mph 5.0 mph 83 % 0.00 in
22:51 39.1 °F 34.7 °F 30.22 in SSW 1.7 mph 3.5 mph 84 % 0.00 in
22:56 39.1 °F 34.7 °F 30.22 in South 2.7 mph 5.8 mph 84 % 0.00 in
23:01 39.2 °F 34.8 °F 30.23 in SSW 3.2 mph 5.8 mph 84 % 0.00 in
23:06 39.2 °F 34.8 °F 30.22 in SSW 3.7 mph 4.6 mph 84 % 0.00 in
23:11 39.2 °F 34.8 °F 30.22 in SSW 0.9 mph 3.5 mph 84 % 0.00 in
23:16 39.3 °F 34.9 °F 30.22 in SW 2.3 mph 3.5 mph 84 % 0.00 in
23:21 39.3 °F 34.9 °F 30.21 in SSW 3.2 mph 6.9 mph 84 % 0.00 in
23:27 39.4 °F 35.0 °F 30.21 in SSW 4.2 mph 5.8 mph 84 % 0.00 in
23:32 39.5 °F 35.4 °F 30.21 in South 1.5 mph 3.5 mph 85 % 0.00 in
23:37 39.6 °F 35.5 °F 30.20 in South 1.8 mph 6.9 mph 85 % 0.00 in
23:42 39.7 °F 35.6 °F 30.20 in SSW 2.8 mph 4.6 mph 85 % 0.00 in
23:47 39.8 °F 35.7 °F 30.19 in SSW 2.9 mph 5.0 mph 85 % 0.00 in
23:52 39.8 °F 35.7 °F 30.19 in South 2.4 mph 5.8 mph 85 % 0.00 in
23:57 40.0 °F 35.9 °F 30.18 in WSW 1.9 mph 7.0 mph 85 % 0.00 in
Crab Meadow Weather
Compliments of Weather Underground - 3 mb

Script developed by  Jim McMurry - jmcmurry@mwt.net Adapted for the template by  Wim van der Kuil - Leuven-Template.eu

Weather Terms: Wind Chill - An apparent temperature that describes the combined effect of wind and low temperature on exposed skin.